Regional Weather Roundup
Issued by NWS Pendleton, OR

Home | Current Version | Previous Version | Text Only | Print | Product List | Glossary On
Versions: 1 2 3 4 5 6 7 8 9 10 11 12 13 14 15 16 17 18 19 20 21 22 23 24 25 26 27 28 29 30 31 32 33 34 35 36 37 38 39 40 41 42 43 44 45 46 47 48 49 50
000
ASUS46 KPDT 280604
RWRPDT
PENDLETON REGIONAL WEATHER ROUNDUP
NATIONAL WEATHER SERVICE PENDLETON OREGON
1100 PM PDT WED MAY 27 2015

NOTE: FAIR INDICATES FEW OR NO CLOUDS BELOW 12,000 FEET WITH NO
SIGNIFICANT WEATHER AND/OR OBSTRUCTIONS TO VISIBILITY.

# INDICATES UNOFFICIAL STATION AND DATA

WAZ520-280710-
EAST SLOPES OF WASHINGTON CASCADES

CITY            SKY/WX      TMP DP  RH  WIND    PRES   REMARKS
#BULLFROG       N/A         64  52  65  W7      N/A
#BULLFROG 2SW   N/A         58  49  72  CALM    27.65S
#BUMPING DAM    N/A         54  N/A N/A CALM    N/A
#CLE ELUM HS    N/A         62  51  67  W3      29.98R
#CLE ELUM LAKE  N/A         57  51  80  CALM    29.96R
#CLIFFDEL 2NW   N/A         56  50  80  N1      N/A
#EASTON DOT     N/A         59  39  47  N1      N/A
#ELK HTS DOT    N/A         64  64  100 CALM    N/A
#GLENWOOD       N/A         52  50  93  CALM    29.98R
#NELSON         N/A         62  52  70  CALM    29.98S
#NELSON 3SW     N/A         56  48  74  CALM    30.16S
#NILE           N/A         54  52  93  CALM    29.28R
#PEOH POINT     N/A         55  47  74  SW7     N/A
#RONALD 2NW     N/A         59  26  28  N1      29.93S
#SNOWDEN        N/A         55  44  66  CALM    N/A
#TEANAWAY 4NE   N/A         60  53  78  SW2     N/A
#TROUT LAKE 1NE N/A         56  55  96  CALM    29.98S
$$

WAZ521-280710-
SIMCOE HIGHLANDS

CITY            SKY/WX      TMP DP  RH  WIND    PRES   REMARKS
#BICKLETON HS   N/A         58  41  53  NW6     N/A
#SATUS PASS DOT N/A         57  41  55  CALM    N/A
#CENTERVILLE 4W N/A         63  52  67  NW8     29.76R
#CENTERVILLE 1SWN/A         64  51  63  W8      29.91R
#GOLDENDALE     N/A         62  52  70  S2      N/A
#GOODNOE HILLS  N/A         65  51  60  SE3     N/A
#LYLE 6NE       N/A         66  54  65  CALM    29.93S
$$

WAZ026-280710-
KITTITAS VALLEY

CITY            SKY/WX      TMP DP  RH  WIND    PRES   REMARKS
ELLENSBURG AP   CLEAR       64  51  63  NW10    30.00R
6HR MIN TEMP:   64; 6HR MAX TEMP:   83; 6HR PCP:  TRACE;

YTC-OPS AREA    N/A         60  48  64  W22G29  30.01S
6HR MIN TEMP:   60; 6HR MAX TEMP:   72;

#ELLENSBURG CWU N/A         64  51  63  NW5     29.90R
#ELLENSBURG 3NE N/A         62  52  70  N3      29.99R
#ELLENSBURG 1E  N/A         64  47  54  CALM    N/A
#KITTITAS 4N    N/A         62  51  67  NW3     28.31R
#KITTITAS 3S    N/A         56  50  80  CALM    29.93R
#MANASTASH RDG  N/A         62  62  100 NW5     N/A
#ROCKY CYN DOT  N/A         65  48  54  NW7     N/A
#RYEGRASS DOT   N/A         60  49  67  W8      N/A
#THORP 6N       N/A         62  52  70  NW8     29.97R
$$

WAZ027-280710-
YAKIMA VALLEY

CITY            SKY/WX      TMP DP  RH  WIND    PRES   REMARKS
SUNNYSIDE AP    CLEAR       60  51  72  N3      29.97R
6HR MIN TEMP:   60; 6HR MAX TEMP:   80;

YAKIMA AIRPORT  CLEAR       64  52  65  W5      29.99R
6HR MIN TEMP:   64; 6HR MAX TEMP:   83;

#DONALD 2NE     N/A         70  42  36  NW3     28.82R
#GRANDVIEW      N/A         66  51  58  CALM    29.95R
#MABTON         N/A         70  52  53  W2      29.95R
#NACHES 2SW     N/A         65  53  65  W9      29.99S
#PARKER DOT     N/A         72  50  46  S9      N/A
#SELAH 8E       N/A         64  49  58  E3      N/A
#TERRACE HTS    N/A         66  50  56  CALM    29.90R
#TOPPENISH      N/A         71  53  53  CALM    29.85R
#I82 S UMTANUM RN/A         65  48  54  NE2     N/A
#UNION GAP DOT  N/A         70  51  51  N2      N/A
#WAPATO 4NE     N/A         70  42  36  NW3     28.82R
#WEST VALLEY    N/A         68  52  57  CALM    29.92R
#W YAKIMA       N/A         68  52  57  N2      29.94R
#WHITE SWAN 5E  N/A         66  54  65  CALM    29.93S
#WILEY CITY 3W  N/A         61  51  70  CALM    29.96S
#ZILLAH DOT     N/A         68  51  55  E1      N/A
$$

WAZ028-280710-
LOWER COLUMBIA BASIN...WASHINGTON

CITY            SKY/WX      TMP DP  RH  WIND    PRES   REMARKS
PASCO           CLEAR       65  53  65  CALM    29.96R
6HR MIN TEMP:   65; 6HR MAX TEMP:   83;

RICHLAND AWOS   CLEAR       72  54  53  E5      29.94S
#BASIN CITY 5SW N/A         64  54  70  CALM    29.95R
#BENTON CITY    N/A         66  53  63  NW3     29.84R
#CONNELL 5N     N/A         63  51  65  CALM    29.94R
#CONNELL 5NW    N/A         64  52  65  CALM    29.90S
#ELTOPIA 6NW    N/A         66  54  65  CALM    28.94R
#KAHLOTUS       N/A         65  49  56  W7      29.94S
#KENNEWICK      N/A         58  49  72  CALM    27.65S
#KENNEWICK 3S   N/A         68  49  51  S1      29.93S
#PATERSON       N/A         70  51  51  NE2     29.91S
#PROSSER DOT    N/A         72  50  46  E2      N/A
#PROSSER        N/A         71  45  39  S5      29.92S
#SAGEMOOR 2W    N/A         63  54  72  CALM    29.78S
#TOUCHET 2S     N/A         57  51  80  CALM    29.93R
#WEST PASCO     N/A         69  51  53  CALM    29.92S
$$

WAZ029-280710-
FOOTHILLS OF THE BLUES...WASHINGTON

CITY            SKY/WX      TMP DP  RH  WIND    PRES   REMARKS
WALLA WALLA AP  CLEAR       60  50  69  E8      29.98S
6HR MIN TEMP:   60; 6HR MAX TEMP:   76;

#DAYTON SCHOOL  N/A         57  45  64  N2      30.02R
#LOWDEN 2SE     N/A         59  53  80  E3      29.93R
#PLEASANT VIEW 1N/A         62  49  62  SW2     29.98S
#PRESCOTT       N/A         58  54  87  CALM    29.95R
#SUDBURY        N/A         56  N/A N/A CALM    N/A
#WHITMAN COLLEGEN/A         61  51  70  CALM    29.99S
#WAITSBURG 8N   N/A         51  34  52  N1      29.82S
#WHITMAN MISSIONN/A         59  53  80  CALM    29.96R
$$

WAZ030-280710-
BLUE MOUNTAINS...WASHINGTON

CITY            SKY/WX      TMP DP  RH  WIND    PRES   REMARKS
#DIXIE 5SE      N/A         58  44  60  NE8     29.97F
$$

ORZ009-041-WAZ024-280710-
COLUMBIA RIVER GORGE

CITY            SKY/WX      TMP DP  RH  WIND    PRES   REMARKS
HOOD RIVER AP   MOCLDY      64  54  70  CALM    29.99S
THE DALLES AP   MOCLDY      72  53  51  NW10    29.96R
6HR MIN TEMP:   72; 6HR MAX TEMP:   85;

#ARLINGTON AIRPON/A         69  51  53  NW3     29.81F
#MARYHILL       N/A         69  51  53  CALM    N/A
#MOSIER 1S      N/A         67  44  43  NW2     29.97S
#MURDOCK        N/A         75  56  52  NW12    29.96R

$$

ORZ510-280710-
NORTH CENTRAL OREGON

CITY            SKY/WX      TMP DP  RH  WIND    PRES   REMARKS
#CHENOWITH 1W   N/A         64  52  65  W21     N/A
#COW CYN RST AREN/A         63  N/A N/A N8      N/A
#DUFUR 9E       N/A         64  51  63  NW6     30.01R
#GRASS VALLEY 1SN/A         65  52  63  NW9     29.96S
#MAUPIN SCHOOL  N/A         69  52  55  CALM    30.00R
#MORO SCHOOL    N/A         67  58  73  W9      30.01R
#SHANIKO 4NW    N/A         58  47  67  VRB9    30.07R
#TYGH VALLEY 2NEN/A         70  52  53  N8      29.94R
#WAPANITIA AIRPON/A         62  51  67  W1      29.97R
#WASCO 5NE      N/A         60  52  75  SW3     29.94R
$$

ORZ511-280710-
CENTRAL OREGON

CITY            SKY/WX      TMP DP  RH  WIND    PRES   REMARKS
BEND AIRPORT    CLEAR       59  48  67  NW6     30.07
MADRAS AIRPORT  CLEAR       61  52  72  NW8     30.06R
PRINEVILLE AP   MOCLEAR     63  43  48  N10     30.04S
REDMOND AIRPORT CLEAR       60  46  60  N7      30.05R
6HR MIN TEMP:   60; 6HR MAX TEMP:   75;

#BEND 1SW       N/A         53  44  71  CALM    N/A
#BEND-AWBREY    N/A         59  48  67  CALM    29.97R
#BEND-KIM LN    N/A         60  48  64  CALM    30.05R
#CROOKED RVR RANN/A         64  52  65  E2      29.95R
#CULVER         N/A         62  51  67  CALM    30.01R
#LAKE BILLY CHINN/A         64  32  30  E7      30.10R
#POWELL BUTTE 3EN/A         59  42  53  W3      N/A
#POWELL BUTTE   N/A         60  44  55  CALM    29.69R
#PRINEVILLE 3N  N/A         58  48  69  CALM    29.93R
#WARM SPRINGS   N/A         68  52  57  SW9     29.98S

$$


ORZ509-280710-
EAST SLOPES OF OREGON CASCADES

CITY            SKY/WX      TMP DP  RH  WIND    PRES   REMARKS
#BLUE BOX PASS  N/A         52  -1  11  NW3     N/A
#CAMP SHERMAN   N/A         55  49  80  CALM    29.95R
#LA PINE 4NW    N/A         53  45  74  CALM    30.02R
#SISTERS AIRPOR N/A         60  55  84  N2      30.17S
#SISTERS ODOT   N/A         62  N/A N/A S1      N/A
#SISTERS 3N     N/A         54  48  80  CALM    30.07R
#SUNRIVER       N/A         53  44  71  CALM    29.87R
#TUMALO 3W      N/A         60  47  62  W6      29.85R
#WANOGA BUTTE D N/A         50  40  68  CALM    N/A

$$

ORZ044-280710-
LOWER COLUMBIA BASIN...OREGON

CITY            SKY/WX      TMP DP  RH  WIND    PRES   REMARKS
HERMISTON       CLEAR       62  50  65  S7      29.95R
6HR MIN TEMP:   62; 6HR MAX TEMP:   82;

#BOARDMAN SCHOOLN/A         66  53  63  CALM    29.95R
#ECHO 8SW       N/A         58  50  75  SW2     29.97R
#IONE SCHOOL    N/A         63  47  56  CALM    29.95R
#IRRIGON 4NW    N/A         66  52  61  E2      N/A
#UMATILLA SCHOOLN/A         67  58  73  E1      30.03S
#UMATILLA       N/A         70  49  47  CALM    29.86S
$$

ORZ507-280710-
NORTHERN FOOTHILLS OF THE BLUES

CITY            SKY/WX      TMP DP  RH  WIND    PRES   REMARKS
PENDLETON AIRPT CLEAR       59  48  67  E7      29.99R
6HR MIN TEMP:   57; 6HR MAX TEMP:   75;

#ADAMS 3WNW     N/A         54  48  80  N1      29.95R
#ATHENA         N/A         54  47  77  CALM    29.98S
#CAYUSE         N/A         61  49  65  E9      29.95R
#HELIX SCHOOL   N/A         57  49  75  CALM    29.95S
#HELIX 3N       N/A         59  46  62  SE1     29.97S
#HOLDMAN 6E     N/A         59  48  67  CALM    29.76S
#M-F FERNDALE   N/A         62  48  60  CALM    29.97R
#M-F GROVE ELEM N/A         62  47  58  CALM    29.97S
#M-FREEWATER 5SEN/A         60  48  64  N1      29.99R
#PENDLETON DNTN N/A         64  44  48  CALM    29.96S
#PDT AQUATIC CTRN/A         63  44  50  E3      30.01S
#PENDLETON 5NE  N/A         56  50  80  CALM    29.95S
#PDT SUNRIDGE   N/A         59  49  69  CALM    30.00R
#PENDLETON 7NW  N/A         64  50  60  E2      28.62R
#PILOT ROCK     N/A         57  46  67  CALM    30.02R
#TUTUILLA       N/A         54  48  80  CALM    29.97R
#UMAPINE 2E     N/A         59  51  75  S3      29.93S
#WESTON SCHOOL  N/A         58  45  62  CALM    29.96S

$$

ORZ508-280710-
SOUTHERN FOOTHILLS OF THE BLUES

CITY            SKY/WX      TMP DP  RH  WIND    PRES   REMARKS
#AJAX           N/A         65  47  52  W1      29.96R
#CONDON SCHOOL  N/A         62  47  58  CALM    30.00S
#CONDON 5W      N/A         59  46  62  NW6     30.03S
#FOSSIL SCHOOL  N/A         58  45  62  CALM    29.98R
#HEPPNER EOC    N/A         60  46  60  E8      29.88S
#HEPPNER 4NE    N/A         55  44  66  E5      29.96S
#LEXINGTON 2SE  N/A         62  47  58  SE5     29.96S
#RUGGS 5NE      N/A         58  38  47  CALM    30.20S
#RUGGS 2SW      N/A         58  43  57  SW5     29.98R

$$

ORZ502-503-280710-
BLUE MOUNTAINS

CITY            SKY/WX      TMP DP  RH  WIND    PRES   REMARKS
MEACHAM         CLEAR       45  42  89  CALM    30.08R
6HR MIN TEMP:   45; 6HR MAX TEMP:   64;

#HEPPNER 15SE   N/A         47  42  83  CALM    29.99R
#LONG CREEK HS  N/A         51  48  89  CALM    30.03R
#PIKES PEAK     N/A         59  44  57  E2      27.99S
#TOLLGATE       N/A         46  41  83  CALM    30.02S
#TROY SCHOOL    N/A         56  50  80  CALM    29.84R
#UKIAH          N/A         48  44  86  CALM    30.03R
#WESTON 4E      N/A         56  44  64  CALM    29.92S
$$

ORZ505-280710-
JOHN DAY BASIN

CITY            SKY/WX      TMP DP  RH  WIND    PRES   REMARKS
JOHN DAY        CLEAR       57  44  62  N5      30.07R
#JOHN DAY KJDY  N/A         57  -43  1  CALM    30.02F
#DAYVILLE SCHOOLN/A         61  43  51  CALM    30.00R
#MITCHELL       N/A         57  48  72  CALM    30.17S
#MONUMENT HS    N/A         57  46  67  CALM    30.02R
#MT. VERNON 5SE N/A         53  44  71  CALM    30.03R
$$

ORZ506-280710-
OCHOCO AND JOHN DAY HIGHLANDS

CITY            SKY/WX      TMP DP  RH  WIND    PRES   REMARKS
#BUCK CREEK DOT N/A         60  47  62  CALM    N/A
#PAULINA SCHOOL N/A         53  43  69  CALM    30.03R
#PINE MTN OBS   N/A         51  36  56  N7      N/A
#PRAIRIE CITY   N/A         52  45  77  CALM    30.05R
#SENECA         N/A         53  N/A N/A N1      N/A
#SENECA 9NW     N/A         46  41  83  CALM    29.97R
$$

ORZ049-280710-
GRANDE RONDE VALLEY

CITY            SKY/WX      TMP DP  RH  WIND    PRES   REMARKS
LA GRANDE       CLEAR       50  37  61  N6      30.03S
#COVE           N/A         52  47  83  N2      30.04S
#COVE SCHOOL    N/A         52  45  77  E1      30.01S
#ELGIN 3N       N/A         51  45  80  CALM    30.02S
#ELGIN 1E       N/A         54  48  80  CALM    N/A
#ISLAND CITY 4N N/A         65  55  70  CALM    30.00R
#LA GRANDE ELEM N/A         54  47  77  CALM    30.06R
#UNION 1S       N/A         54  48  80  CALM    29.89R
$$

ORZ050-280710-
WALLOWA COUNTY

CITY            SKY/WX      TMP DP  RH  WIND    PRES   REMARKS
#ENTERPRISE HS  N/A         49  45  86  CALM    30.08S
#IMNAHA SCHOOL  N/A         57  50  77  SW2     30.03S
#IMNAHA 10S     N/A         51  47  86  SW3     30.05R
#JOSEPH 3W      N/A         46  42  86  SW3     29.93S
#LOSTINE        N/A         50  44  80  E1      29.81R
#MT HOWARD 8000 N/A         37  N/A N/A W1      30.19R
#PROMISE 1S     N/A         48  45  89  E1      30.09S
#SHEEP RDG 7000 N/A         42  36  79  CALM    30.06S
#WALLOWA SCHOOL N/A         49  45  86  CALM    30.92R



$$



USA.gov is the U.S. government's official web portal to all federal, state and local government web resources and services.